Time,TemperatureF,DewpointF,PressureIn,WindDirection,WindDirectionDegrees,WindSpeedMPH,WindSpeedGustMPH,Humidity,HourlyPrecipIn,Conditions,Clouds,dailyrainin,SoftwareType,DateUTC
2013-08-13 00:05:00,70.0,69.7,29.85,NNW,338,1.0,2.0,99,-0.17,,,0.00,Weather View 32 v70,2013-08-13 04:05:00,
2013-08-13 00:10:00,70.0,69.7,29.85,North,0,2.0,2.0,99,-0.17,,,0.00,Weather View 32 v70,2013-08-13 04:10:00,
2013-08-13 00:15:00,70.0,69.4,29.85,NNE,22,1.0,2.0,98,-0.17,,,0.00,Weather View 32 v70,2013-08-13 04:15:00,
2013-08-13 00:20:00,70.0,69.4,29.85,North,0,1.0,2.0,98,-0.17,,,0.00,Weather View 32 v70,2013-08-13 04:20:00,
2013-08-13 00:30:00,70.0,69.4,29.84,NNW,338,0.0,2.0,98,-0.17,,,0.00,Weather View 32 v70,2013-08-13 04:30:00,
2013-08-13 00:35:00,70.0,69.4,29.84,NNW,338,1.0,2.0,98,-0.17,,,0.00,Weather View 32 v70,2013-08-13 04:35:00,
2013-08-13 00:45:00,70.0,69.4,29.84,NW,315,0.0,2.0,98,-0.17,,,0.00,Weather View 32 v70,2013-08-13 04:45:00,
2013-08-13 00:50:00,69.0,68.4,29.83,NW,315,1.0,2.0,98,-0.17,,,0.00,Weather View 32 v70,2013-08-13 04:50:00,
2013-08-13 00:55:00,69.0,68.4,29.83,NW,315,0.0,2.0,98,-0.17,,,0.00,Weather View 32 v70,2013-08-13 04:55:00,
2013-08-13 01:05:00,69.0,68.1,29.83,NW,315,0.0,2.0,97,0.00,,,0.00,Weather View 32 v70,2013-08-13 05:05:00,
2013-08-13 01:09:00,69.0,68.1,29.83,NW,315,0.0,2.0,97,0.00,,,0.00,Weather View 32 v70,2013-08-13 05:09:00,
2013-08-13 01:15:00,69.0,68.1,29.83,NW,315,0.0,2.0,97,0.00,,,0.00,Weather View 32 v70,2013-08-13 05:15:00,
2013-08-13 01:20:00,69.0,68.1,29.83,NW,315,0.0,2.0,97,0.00,,,0.00,Weather View 32 v70,2013-08-13 05:20:00,
2013-08-13 01:30:00,69.0,68.1,29.83,NW,315,1.0,2.0,97,0.00,,,0.00,Weather View 32 v70,2013-08-13 05:30:00,
2013-08-13 01:40:00,69.0,68.1,29.82,NW,315,1.0,2.0,97,0.00,,,0.00,Weather View 32 v70,2013-08-13 05:40:00,
2013-08-13 01:50:00,69.0,67.8,29.82,NW,315,1.0,2.0,96,0.00,,,0.00,Weather View 32 v70,2013-08-13 05:50:00,
2013-08-13 01:59:00,68.0,66.8,29.82,West,270,1.0,3.0,96,0.00,,,0.00,Weather View 32 v70,2013-08-13 05:59:00,
2013-08-13 02:05:00,68.0,66.8,29.81,NW,315,1.0,3.0,96,0.00,,,0.00,Weather View 32 v70,2013-08-13 06:05:00,
2013-08-13 02:10:00,68.0,66.5,29.82,NW,315,0.0,3.0,95,0.00,,,0.00,Weather View 32 v70,2013-08-13 06:10:00,
2013-08-13 02:20:00,68.0,66.5,29.81,West,270,1.0,3.0,95,0.00,,,0.00,Weather View 32 v70,2013-08-13 06:20:00,
2013-08-13 02:30:00,68.0,66.5,29.81,West,270,3.0,4.0,95,0.00,,,0.00,Weather View 32 v70,2013-08-13 06:30:00,
2013-08-13 02:35:00,68.0,66.2,29.80,West,270,2.0,4.0,94,0.00,,,0.00,Weather View 32 v70,2013-08-13 06:35:00,
2013-08-13 02:44:00,68.0,66.2,29.80,WNW,292,1.0,4.0,94,0.00,,,0.00,Weather View 32 v70,2013-08-13 06:44:00,
2013-08-13 02:50:00,68.0,66.2,29.80,NW,315,1.0,4.0,94,0.00,,,0.00,Weather View 32 v70,2013-08-13 06:50:00,
2013-08-13 02:59:00,68.0,65.9,29.80,NNE,22,0.0,4.0,93,0.00,,,0.00,Weather View 32 v70,2013-08-13 06:59:00,
2013-08-13 03:04:00,68.0,65.9,29.80,NNW,338,0.0,4.0,93,0.00,,,0.00,Weather View 32 v70,2013-08-13 07:04:00,
2013-08-13 03:10:00,68.0,65.9,29.80,West,270,1.0,4.0,93,0.00,,,0.00,Weather View 32 v70,2013-08-13 07:10:00,
2013-08-13 03:19:00,68.0,65.9,29.79,NW,315,1.0,4.0,93,0.00,,,0.00,Weather View 32 v70,2013-08-13 07:19:00,
2013-08-13 03:24:00,68.0,65.9,29.79,WNW,292,1.0,4.0,93,0.00,,,0.00,Weather View 32 v70,2013-08-13 07:24:00,
2013-08-13 03:30:00,68.0,65.6,29.79,West,270,1.0,4.0,92,0.00,,,0.00,Weather View 32 v70,2013-08-13 07:30:00,
2013-08-13 03:39:00,69.0,66.6,29.78,WNW,292,2.0,3.0,92,0.00,,,0.00,Weather View 32 v70,2013-08-13 07:39:00,
2013-08-13 03:44:00,69.0,66.6,29.78,NNW,338,0.0,3.0,92,0.00,,,0.00,Weather View 32 v70,2013-08-13 07:44:00,
2013-08-13 03:54:00,69.0,66.6,29.78,West,270,1.0,3.0,92,0.00,,,0.00,Weather View 32 v70,2013-08-13 07:54:00,
2013-08-13 03:59:00,69.0,66.6,29.78,West,270,1.0,3.0,92,0.00,,,0.00,Weather View 32 v70,2013-08-13 07:59:00,
2013-08-13 04:04:00,69.0,66.6,29.78,NW,315,1.0,3.0,92,0.00,,,0.00,Weather View 32 v70,2013-08-13 08:04:00,
2013-08-13 04:14:00,69.0,66.6,29.77,NNW,338,1.0,3.0,92,0.00,,,0.00,Weather View 32 v70,2013-08-13 08:14:00,
2013-08-13 04:20:00,69.0,66.3,29.77,North,0,1.0,3.0,91,0.00,,,0.00,Weather View 32 v70,2013-08-13 08:20:00,
2013-08-13 04:30:00,69.0,66.3,29.77,NW,315,1.0,3.0,91,0.00,,,0.00,Weather View 32 v70,2013-08-13 08:30:00,
2013-08-13 04:39:00,69.0,66.3,29.77,SW,225,1.0,3.0,91,0.00,,,0.00,Weather View 32 v70,2013-08-13 08:39:00,
2013-08-13 04:44:00,69.0,66.3,29.77,WNW,292,1.0,3.0,91,0.00,,,0.00,Weather View 32 v70,2013-08-13 08:44:00,
2013-08-13 04:49:00,69.0,66.3,29.77,WNW,292,1.0,3.0,91,0.00,,,0.00,Weather View 32 v70,2013-08-13 08:49:00,
2013-08-13 04:59:00,69.0,65.9,29.77,North,0,0.0,3.0,90,0.00,,,0.00,Weather View 32 v70,2013-08-13 08:59:00,
2013-08-13 05:09:00,69.0,65.9,29.77,WNW,292,1.0,3.0,90,0.00,,,0.00,Weather View 32 v70,2013-08-13 09:09:00,
2013-08-13 05:14:00,69.0,65.9,29.77,North,0,1.0,3.0,90,0.00,,,0.00,Weather View 32 v70,2013-08-13 09:14:00,
2013-08-13 05:20:00,69.0,65.9,29.76,North,0,1.0,3.0,90,0.00,,,0.00,Weather View 32 v70,2013-08-13 09:20:00,
2013-08-13 05:30:00,69.0,65.6,29.76,WNW,292,1.0,3.0,89,0.00,,,0.00,Weather View 32 v70,2013-08-13 09:30:00,
2013-08-13 05:40:00,69.0,65.6,29.76,West,270,1.0,3.0,89,0.00,,,0.00,Weather View 32 v70,2013-08-13 09:40:00,
2013-08-13 05:49:00,69.0,65.6,29.76,West,270,3.0,3.0,89,0.00,,,0.00,Weather View 32 v70,2013-08-13 09:49:00,
2013-08-13 05:59:00,69.0,65.3,29.76,WNW,292,3.0,3.0,88,0.00,,,0.00,Weather View 32 v70,2013-08-13 09:59:00,
2013-08-13 06:04:00,69.0,65.3,29.76,West,270,2.0,3.0,88,0.00,,,0.00,Weather View 32 v70,2013-08-13 10:04:00,
2013-08-13 06:10:00,69.0,65.3,29.76,West,270,2.0,3.0,88,0.00,,,0.00,Weather View 32 v70,2013-08-13 10:10:00,
2013-08-13 06:20:00,70.0,65.9,29.76,WSW,248,3.0,3.0,87,0.01,,,0.01,Weather View 32 v70,2013-08-13 10:20:00,
2013-08-13 06:30:00,69.0,65.0,29.76,West,270,2.0,3.0,87,0.03,,,0.03,Weather View 32 v70,2013-08-13 10:30:00,
2013-08-13 06:40:00,70.0,65.6,29.75,NNE,22,1.0,3.0,86,0.05,,,0.05,Weather View 32 v70,2013-08-13 10:40:00,
2013-08-13 06:49:00,70.0,65.6,29.76,WNW,292,0.0,3.0,86,0.08,,,0.08,Weather View 32 v70,2013-08-13 10:49:00,
2013-08-13 06:54:00,70.0,65.6,29.76,WNW,292,1.0,3.0,86,0.09,,,0.09,Weather View 32 v70,2013-08-13 10:54:00,
2013-08-13 07:00:00,70.0,65.3,29.76,WNW,292,1.0,3.0,85,0.10,,,0.10,Weather View 32 v70,2013-08-13 11:00:00,
2013-08-13 07:10:00,69.0,64.3,29.76,East,90,4.0,5.0,85,0.13,,,0.13,Weather View 32 v70,2013-08-13 11:10:00,
2013-08-13 07:20:00,69.0,64.3,29.74,NW,315,3.0,5.0,85,0.16,,,0.17,Weather View 32 v70,2013-08-13 11:20:00,
2013-08-13 07:30:00,69.0,63.9,29.76,West,270,1.0,5.0,84,0.17,,,0.20,Weather View 32 v70,2013-08-13 11:30:00,
2013-08-13 07:40:00,69.0,63.9,29.75,NW,315,1.0,5.0,84,0.16,,,0.21,Weather View 32 v70,2013-08-13 11:40:00,
2013-08-13 07:49:00,70.0,64.9,29.76,ESE,112,3.0,5.0,84,0.16,,,0.24,Weather View 32 v70,2013-08-13 11:49:00,
2013-08-13 07:59:00,69.0,63.6,29.75,North,0,1.0,5.0,83,0.18,,,0.28,Weather View 32 v70,2013-08-13 11:59:00,
2013-08-13 08:04:00,69.0,63.6,29.76,East,90,1.0,5.0,83,0.18,,,0.29,Weather View 32 v70,2013-08-13 12:04:00,
2013-08-13 08:10:00,70.0,64.6,29.75,East,90,2.0,5.0,83,0.17,,,0.30,Weather View 32 v70,2013-08-13 12:10:00,
2013-08-13 08:19:00,69.0,63.6,29.75,NE,45,2.0,5.0,83,0.23,,,0.40,Weather View 32 v70,2013-08-13 12:19:00,
2013-08-13 08:24:00,69.0,63.6,29.75,NNE,22,1.0,4.0,83,0.22,,,0.41,Weather View 32 v70,2013-08-13 12:24:00,
2013-08-13 08:29:00,70.0,64.6,29.74,WNW,292,1.0,4.0,83,0.23,,,0.43,Weather View 32 v70,2013-08-13 12:29:00,
2013-08-13 08:39:00,70.0,64.2,29.74,NNE,22,0.0,4.0,82,0.24,,,0.45,Weather View 32 v70,2013-08-13 12:39:00,
2013-08-13 08:49:00,70.0,64.2,29.76,SSW,202,2.0,4.0,82,0.27,,,0.51,Weather View 32 v70,2013-08-13 12:49:00,
2013-08-13 08:59:00,70.0,64.2,29.75,West,270,2.0,4.0,82,0.27,,,0.55,Weather View 32 v70,2013-08-13 12:59:00,
2013-08-13 09:04:00,69.0,63.3,29.75,South,180,3.0,4.0,82,0.28,,,0.57,Weather View 32 v70,2013-08-13 13:04:00,
2013-08-13 09:14:00,69.0,63.6,29.74,West,270,2.0,4.0,83,0.26,,,0.62,Weather View 32 v70,2013-08-13 13:14:00,
2013-08-13 09:25:00,69.0,63.6,29.73,West,270,4.0,6.0,83,0.26,,,0.67,Weather View 32 v70,2013-08-13 13:25:00,
2013-08-13 09:34:00,69.0,63.6,29.73,SW,225,5.0,10.0,83,0.28,,,0.72,Weather View 32 v70,2013-08-13 13:34:00,
2013-08-13 09:39:00,69.0,63.6,29.73,West,270,7.0,11.0,83,0.29,,,0.74,Weather View 32 v70,2013-08-13 13:39:00,
2013-08-13 09:49:00,68.0,63.0,29.72,West,270,5.0,11.0,84,0.27,,,0.78,Weather View 32 v70,2013-08-13 13:49:00,
2013-08-13 09:54:00,68.0,62.6,29.71,NNW,338,4.0,11.0,83,0.27,,,0.81,Weather View 32 v70,2013-08-13 13:54:00,
2013-08-13 10:04:00,68.0,62.6,29.70,NNE,22,5.0,11.0,83,0.27,,,0.84,Weather View 32 v70,2013-08-13 14:04:00,
2013-08-13 10:14:00,68.0,62.6,29.69,WSW,248,1.0,11.0,83,0.27,,,0.89,Weather View 32 v70,2013-08-13 14:14:00,
2013-08-13 10:19:00,68.0,62.6,29.68,WNW,292,3.0,11.0,83,0.25,,,0.90,Weather View 32 v70,2013-08-13 14:19:00,
2013-08-13 10:25:00,68.0,62.6,29.68,North,0,6.0,11.0,83,0.23,,,0.90,Weather View 32 v70,2013-08-13 14:25:00,
2013-08-13 10:34:00,68.0,62.6,29.68,WNW,292,4.0,11.0,83,0.19,,,0.91,Weather View 32 v70,2013-08-13 14:34:00,
2013-08-13 10:39:00,68.0,62.3,29.68,WSW,248,0.0,11.0,82,0.17,,,0.91,Weather View 32 v70,2013-08-13 14:39:00,
2013-08-13 10:49:00,69.0,63.3,29.69,SW,225,5.0,9.0,82,0.14,,,0.92,Weather View 32 v70,2013-08-13 14:49:00,
2013-08-13 10:54:00,69.0,63.3,29.69,SW,225,3.0,9.0,82,0.11,,,0.92,Weather View 32 v70,2013-08-13 14:54:00,
2013-08-13 11:04:00,69.0,63.3,29.69,West,270,7.0,10.0,82,0.08,,,0.92,Weather View 32 v70,2013-08-13 15:04:00,
2013-08-13 11:09:00,70.0,64.2,29.68,WNW,292,2.0,10.0,82,0.06,,,0.92,Weather View 32 v70,2013-08-13 15:09:00,
2013-08-13 11:14:00,70.0,64.2,29.68,NNW,338,1.0,10.0,82,0.03,,,0.92,Weather View 32 v70,2013-08-13 15:14:00,
2013-08-13 11:24:00,70.0,64.2,29.67,West,270,1.0,10.0,82,0.02,,,0.92,Weather View 32 v70,2013-08-13 15:24:00,
2013-08-13 11:34:00,70.0,64.2,29.69,NW,315,1.0,10.0,82,0.01,,,0.92,Weather View 32 v70,2013-08-13 15:34:00,
2013-08-13 11:39:00,70.0,64.2,29.68,NNE,22,3.0,10.0,82,0.01,,,0.92,Weather View 32 v70,2013-08-13 15:39:00,
2013-08-13 11:44:00,70.0,64.2,29.68,NNE,22,2.0,10.0,82,0.00,,,0.92,Weather View 32 v70,2013-08-13 15:44:00,
2013-08-13 11:49:00,71.0,65.2,29.68,NW,315,4.0,10.0,82,0.00,,,0.92,Weather View 32 v70,2013-08-13 15:49:00,
2013-08-13 11:59:00,71.0,65.2,29.68,NW,315,3.0,10.0,82,0.00,,,0.92,Weather View 32 v70,2013-08-13 15:59:00,
2013-08-13 12:04:00,72.0,66.2,29.68,WSW,248,1.0,10.0,82,0.00,,,0.92,Weather View 32 v70,2013-08-13 16:04:00,
2013-08-13 12:09:00,72.0,66.5,29.69,North,0,3.0,8.0,83,0.00,,,0.92,Weather View 32 v70,2013-08-13 16:09:00,
2013-08-13 12:19:00,72.0,67.2,29.69,NNE,22,0.0,8.0,85,0.00,,,0.92,Weather View 32 v70,2013-08-13 16:19:00,
2013-08-13 12:27:00,72.0,67.6,29.68,NW,315,3.0,8.0,86,0.00,,,0.92,Weather View 32 v70,2013-08-13 16:27:00,
2013-08-13 12:34:00,73.0,69.9,29.68,NNE,22,3.0,8.0,90,0.00,,,0.92,Weather View 32 v70,2013-08-13 16:34:00,
2013-08-13 12:39:00,73.0,70.5,29.68,SSE,158,1.0,8.0,92,0.00,,,0.92,Weather View 32 v70,2013-08-13 16:39:00,
2013-08-13 12:49:00,74.0,71.8,29.68,West,270,4.0,8.0,93,0.00,,,0.92,Weather View 32 v70,2013-08-13 16:49:00,
2013-08-13 12:54:00,74.0,72.5,29.68,NNW,338,0.0,8.0,95,0.00,,,0.92,Weather View 32 v70,2013-08-13 16:54:00,
2013-08-13 13:04:00,74.0,73.1,29.67,SSW,202,4.0,8.0,97,0.00,,,0.92,Weather View 32 v70,2013-08-13 17:04:00,
2013-08-13 13:14:00,74.0,73.4,29.67,WNW,292,3.0,8.0,98,0.00,,,0.92,Weather View 32 v70,2013-08-13 17:14:00,
2013-08-13 13:24:00,75.0,74.1,29.68,West,270,3.0,7.0,97,0.00,,,0.92,Weather View 32 v70,2013-08-13 17:24:00,
2013-08-13 13:29:00,76.0,74.8,29.68,West,270,2.0,7.0,96,0.00,,,0.92,Weather View 32 v70,2013-08-13 17:29:00,
2013-08-13 13:39:00,76.0,74.1,29.68,NNE,22,4.0,7.0,94,0.00,,,0.92,Weather View 32 v70,2013-08-13 17:39:00,
2013-08-13 13:44:00,76.0,73.8,29.68,NNW,338,2.0,7.0,93,0.00,,,0.92,Weather View 32 v70,2013-08-13 17:44:00,
2013-08-13 13:54:00,76.0,73.8,29.68,SSW,202,0.0,7.0,93,0.00,,,0.92,Weather View 32 v70,2013-08-13 17:54:00,
2013-08-13 14:04:00,75.0,72.5,29.67,West,270,4.0,7.0,92,0.00,,,0.92,Weather View 32 v70,2013-08-13 18:04:00,
2013-08-13 14:09:00,76.0,73.2,29.68,NW,315,0.0,6.0,91,0.00,,,0.92,Weather View 32 v70,2013-08-13 18:09:00,
2013-08-13 14:19:00,76.0,72.8,29.68,South,180,0.0,6.0,90,0.00,,,0.92,Weather View 32 v70,2013-08-13 18:19:00,
2013-08-13 14:28:00,77.0,73.8,29.68,East,90,1.0,6.0,90,0.00,,,0.92,Weather View 32 v70,2013-08-13 18:28:00,
2013-08-13 14:34:00,76.0,72.8,29.67,NE,45,2.0,5.0,90,0.00,,,0.92,Weather View 32 v70,2013-08-13 18:34:00,
2013-08-13 14:44:00,76.0,73.2,29.67,North,0,3.0,5.0,91,0.00,,,0.92,Weather View 32 v70,2013-08-13 18:44:00,
2013-08-13 14:54:00,76.0,73.2,29.66,NNE,22,2.0,5.0,91,0.00,,,0.92,Weather View 32 v70,2013-08-13 18:54:00,
2013-08-13 15:04:00,77.0,73.8,29.66,SW,225,3.0,5.0,90,0.00,,,0.92,Weather View 32 v70,2013-08-13 19:04:00,
2013-08-13 15:14:00,78.0,73.8,29.65,WSW,248,3.0,5.0,87,0.00,,,0.92,Weather View 32 v70,2013-08-13 19:14:00,
2013-08-13 15:19:00,78.0,73.1,29.65,NE,45,1.0,6.0,85,0.00,,,0.92,Weather View 32 v70,2013-08-13 19:19:00,
2013-08-13 15:28:00,79.0,73.7,29.64,South,180,3.0,6.0,84,0.00,,,0.92,Weather View 32 v70,2013-08-13 19:28:00,
2013-08-13 15:34:00,80.0,74.0,29.64,NW,315,1.0,6.0,82,0.00,,,0.92,Weather View 32 v70,2013-08-13 19:34:00,
2013-08-13 15:39:00,80.0,72.9,29.64,East,90,0.0,6.0,79,0.00,,,0.92,Weather View 32 v70,2013-08-13 19:39:00,
2013-08-13 15:49:00,81.0,73.5,29.64,East,90,1.0,6.0,78,0.00,,,0.92,Weather View 32 v70,2013-08-13 19:49:00,
2013-08-13 15:59:00,80.0,71.3,29.65,SSW,202,5.0,6.0,75,0.00,,,0.92,Weather View 32 v70,2013-08-13 19:59:00,
2013-08-13 16:04:00,80.0,71.7,29.64,WSW,248,1.0,6.0,76,0.00,,,0.92,Weather View 32 v70,2013-08-13 20:04:00,
2013-08-13 16:14:00,81.0,70.7,29.64,SSW,202,4.0,8.0,71,0.00,,,0.92,Weather View 32 v70,2013-08-13 20:14:00,
2013-08-13 16:19:00,81.0,70.7,29.64,ESE,112,2.0,8.0,71,0.00,,,0.92,Weather View 32 v70,2013-08-13 20:19:00,
2013-08-13 16:29:00,82.0,71.2,29.64,SSE,158,4.0,8.0,70,0.00,,,0.92,Weather View 32 v70,2013-08-13 20:29:00,
2013-08-13 16:34:00,82.0,70.8,29.64,South,180,5.0,8.0,69,0.00,,,0.92,Weather View 32 v70,2013-08-13 20:34:00,
2013-08-13 16:39:00,82.0,70.8,29.64,SSW,202,4.0,8.0,69,0.00,,,0.92,Weather View 32 v70,2013-08-13 20:39:00,
2013-08-13 16:44:00,81.0,69.4,29.64,SSW,202,3.0,11.0,68,0.00,,,0.92,Weather View 32 v70,2013-08-13 20:44:00,
2013-08-13 16:54:00,81.0,70.7,29.64,SSW,202,3.0,11.0,71,0.00,,,0.92,Weather View 32 v70,2013-08-13 20:54:00,
2013-08-13 17:04:00,82.0,71.2,29.64,SSE,158,2.0,11.0,70,0.00,,,0.92,Weather View 32 v70,2013-08-13 21:04:00,
2013-08-13 17:14:00,82.0,70.8,29.64,ENE,68,3.0,11.0,69,0.00,,,0.92,Weather View 32 v70,2013-08-13 21:14:00,
2013-08-13 17:19:00,82.0,70.3,29.64,East,90,3.0,11.0,68,0.00,,,0.92,Weather View 32 v70,2013-08-13 21:19:00,
2013-08-13 17:29:00,82.0,70.3,29.64,ESE,112,2.0,11.0,68,0.00,,,0.92,Weather View 32 v70,2013-08-13 21:29:00,
2013-08-13 17:39:00,82.0,70.8,29.64,South,180,3.0,11.0,69,0.00,,,0.92,Weather View 32 v70,2013-08-13 21:39:00,
2013-08-13 17:49:00,81.0,70.2,29.63,ESE,112,5.0,9.0,70,0.00,,,0.92,Weather View 32 v70,2013-08-13 21:49:00,
2013-08-13 17:54:00,81.0,71.1,29.63,ESE,112,5.0,9.0,72,0.00,,,0.92,Weather View 32 v70,2013-08-13 21:54:00,
2013-08-13 18:04:00,82.0,71.6,29.64,ESE,112,5.0,9.0,71,0.00,,,0.92,Weather View 32 v70,2013-08-13 22:04:00,
2013-08-13 18:09:00,81.0,70.7,29.63,SE,135,5.0,9.0,71,0.00,,,0.92,Weather View 32 v70,2013-08-13 22:09:00,
2013-08-13 18:19:00,81.0,71.5,29.63,East,90,3.0,9.0,73,0.00,,,0.92,Weather View 32 v70,2013-08-13 22:19:00,
2013-08-13 18:30:00,81.0,71.9,29.63,ESE,112,3.0,9.0,74,0.00,,,0.92,Weather View 32 v70,2013-08-13 22:30:00,
2013-08-13 18:39:00,81.0,71.5,29.63,ESE,112,3.0,8.0,73,0.00,,,0.92,Weather View 32 v70,2013-08-13 22:39:00,
2013-08-13 18:44:00,81.0,71.5,29.63,ESE,112,4.0,8.0,73,0.00,,,0.92,Weather View 32 v70,2013-08-13 22:44:00,
2013-08-13 18:54:00,80.0,71.3,29.63,ESE,112,3.0,8.0,75,0.00,,,0.92,Weather View 32 v70,2013-08-13 22:54:00,
2013-08-13 19:04:00,80.0,72.5,29.63,ESE,112,5.0,8.0,78,0.00,,,0.92,Weather View 32 v70,2013-08-13 23:04:00,
2013-08-13 19:14:00,79.0,72.3,29.64,ESE,112,2.0,8.0,80,0.00,,,0.92,Weather View 32 v70,2013-08-13 23:14:00,
2013-08-13 19:19:00,79.0,72.6,29.64,SE,135,4.0,8.0,81,0.00,,,0.92,Weather View 32 v70,2013-08-13 23:19:00,
2013-08-13 19:29:00,78.0,72.4,29.65,East,90,3.0,8.0,83,0.00,,,0.92,Weather View 32 v70,2013-08-13 23:29:00,
2013-08-13 19:39:00,78.0,73.1,29.65,SE,135,3.0,7.0,85,0.00,,,0.92,Weather View 32 v70,2013-08-13 23:39:00,
2013-08-13 19:44:00,78.0,73.5,29.65,ESE,112,2.0,7.0,86,0.00,,,0.92,Weather View 32 v70,2013-08-13 23:44:00,
2013-08-13 19:49:00,78.0,73.8,29.65,SE,135,3.0,6.0,87,0.00,,,0.92,Weather View 32 v70,2013-08-13 23:49:00,
2013-08-13 19:59:00,77.0,73.5,29.65,SE,135,2.0,6.0,89,0.00,,,0.92,Weather View 32 v70,2013-08-13 23:59:00,
2013-08-13 20:04:00,77.0,73.5,29.65,SE,135,3.0,6.0,89,0.00,,,0.92,Weather View 32 v70,2013-08-14 00:04:00,
2013-08-13 20:09:00,77.0,73.8,29.65,East,90,3.0,6.0,90,0.00,,,0.92,Weather View 32 v70,2013-08-14 00:09:00,
2013-08-13 20:19:00,76.0,73.5,29.65,East,90,3.0,6.0,92,0.00,,,0.92,Weather View 32 v70,2013-08-14 00:19:00,
2013-08-13 20:24:00,76.0,73.8,29.65,ESE,112,3.0,5.0,93,0.00,,,0.92,Weather View 32 v70,2013-08-14 00:24:00,
2013-08-13 20:31:00,76.0,74.1,29.64,East,90,2.0,5.0,94,0.00,,,0.92,Weather View 32 v70,2013-08-14 00:31:00,
2013-08-13 20:39:00,76.0,74.1,29.65,SSE,158,1.0,5.0,94,0.00,,,0.92,Weather View 32 v70,2013-08-14 00:39:00,
2013-08-13 20:49:00,76.0,74.5,29.65,East,90,1.0,5.0,95,0.00,,,0.92,Weather View 32 v70,2013-08-14 00:49:00,
2013-08-13 20:54:00,76.0,74.5,29.65,East,90,2.0,5.0,95,0.00,,,0.92,Weather View 32 v70,2013-08-14 00:54:00,
2013-08-13 21:04:00,75.0,73.8,29.65,SSE,158,4.0,5.0,96,0.00,,,0.92,Weather View 32 v70,2013-08-14 01:04:00,
2013-08-13 21:14:00,75.0,73.8,29.66,SSE,158,3.0,6.0,96,0.00,,,0.92,Weather View 32 v70,2013-08-14 01:14:00,
2013-08-13 21:19:00,76.0,74.8,29.66,SSE,158,3.0,6.0,96,0.00,,,0.92,Weather View 32 v70,2013-08-14 01:19:00,
2013-08-13 21:29:00,76.0,74.8,29.66,SE,135,3.0,6.0,96,0.00,,,0.92,Weather View 32 v70,2013-08-14 01:29:00,
2013-08-13 21:34:00,76.0,74.8,29.67,SSE,158,3.0,6.0,96,0.00,,,0.92,Weather View 32 v70,2013-08-14 01:34:00,
2013-08-13 21:39:00,76.0,74.8,29.68,SW,225,5.0,6.0,96,0.00,,,0.92,Weather View 32 v70,2013-08-14 01:39:00,
2013-08-13 21:49:00,74.0,69.9,29.68,SW,225,10.0,17.0,87,0.00,,,0.92,Weather View 32 v70,2013-08-14 01:49:00,
2013-08-13 21:54:00,74.0,69.5,29.68,NW,315,6.0,17.0,86,0.00,,,0.92,Weather View 32 v70,2013-08-14 01:54:00,
2013-08-13 22:04:00,73.0,69.2,29.68,SW,225,3.0,17.0,88,0.00,,,0.92,Weather View 32 v70,2013-08-14 02:04:00,
2013-08-13 22:09:00,72.0,68.6,29.68,WSW,248,6.0,17.0,89,0.00,,,0.92,Weather View 32 v70,2013-08-14 02:09:00,
2013-08-13 22:19:00,72.0,69.2,29.68,SW,225,3.0,17.0,91,0.00,,,0.92,Weather View 32 v70,2013-08-14 02:19:00,
2013-08-13 22:24:00,72.0,69.5,29.68,SW,225,3.0,17.0,92,0.00,,,0.92,Weather View 32 v70,2013-08-14 02:24:00,
2013-08-13 22:32:00,72.0,69.5,29.68,SW,225,1.0,17.0,92,0.00,,,0.92,Weather View 32 v70,2013-08-14 02:32:00,
2013-08-13 22:39:00,72.0,69.9,29.68,WNW,292,1.0,17.0,93,0.00,,,0.92,Weather View 32 v70,2013-08-14 02:39:00,
2013-08-13 22:44:00,71.0,68.9,29.68,WSW,248,0.0,17.0,93,0.00,,,0.92,Weather View 32 v70,2013-08-14 02:44:00,
2013-08-13 22:54:00,71.0,68.9,29.68,North,0,0.0,10.0,93,0.00,,,0.92,Weather View 32 v70,2013-08-14 02:54:00,
2013-08-13 23:04:00,71.0,68.9,29.69,NNE,22,0.0,8.0,93,0.00,,,0.92,Weather View 32 v70,2013-08-14 03:04:00,
2013-08-13 23:14:00,71.0,69.2,29.70,NNW,338,0.0,5.0,94,0.00,,,0.92,Weather View 32 v70,2013-08-14 03:14:00,
2013-08-13 23:19:00,70.0,68.5,29.70,NNW,338,0.0,5.0,95,0.00,,,0.92,Weather View 32 v70,2013-08-14 03:19:00,
2013-08-13 23:29:00,70.0,68.8,29.70,West,270,2.0,3.0,96,0.00,,,0.92,Weather View 32 v70,2013-08-14 03:29:00,
2013-08-13 23:34:00,70.0,69.1,29.70,West,270,1.0,3.0,97,0.00,,,0.92,Weather View 32 v70,2013-08-14 03:34:00,
2013-08-13 23:39:00,70.0,69.1,29.70,WSW,248,1.0,3.0,97,0.00,,,0.92,Weather View 32 v70,2013-08-14 03:39:00,
2013-08-13 23:49:00,70.0,69.4,29.70,West,270,3.0,3.0,98,0.00,,,0.92,Weather View 32 v70,2013-08-14 03:49:00,
2013-08-13 23:54:00,70.0,69.4,29.70,NW,315,1.0,3.0,98,0.00,,,0.92,Weather View 32 v70,2013-08-14 03:54:00,